PD0HRY-12 Weather Reports


time (UTC)temp
F
wind
direction
speed
knots
gust
knots
rain 1hr
in
rain 24hr
in
rain mn
in
humidity
%
barometer
mb
20260506043004 47 325 0.0 0.0 0.00 0.00 0.00 91 1000.0
20260506040002 47 347 0.0 0.0 0.00 0.00 0.00 91 1000.0
20260506033000 48 335 0.0 0.0 0.00 0.00 0.00 91 1000.0
20260506030004 47 358 0.0 0.0 0.00 0.00 0.00 92 1000.0
20260506023002 48 30 0.0 0.0 0.00 0.00 0.00 90 1001.0
20260506020000 48 317 0.0 0.0 0.00 0.00 0.00 89 1001.0
20260506013004 48 51 0.0 0.0 0.00 0.09 0.00 89 1001.0
20260506010002 48 14 0.0 0.0 0.00 0.09 0.00 87 1001.0
20260506003005 49 354 0.0 0.0 0.00 0.24 0.00 85 1001.0
20260506000003 49 1 0.0 0.0 0.00 0.24 0.00 85 1001.0
20260505233001 49 331 0.0 0.0 0.00 0.45 0.00 84 1002.0
20260505230005 49 338 0.0 0.0 0.00 0.45 0.00 83 1002.0
20260505223003 50 308 0.0 0.0 0.00 0.52 0.00 83 1002.0
20260505220002 50 355 0.0 0.0 0.00 0.52 0.52 83 1002.0
20260505213005 50 354 0.0 0.0 0.00 0.52 0.52 83 1002.0
20260505210003 51 18 0.0 0.0 0.00 0.52 0.52 82 1002.0
20260505203001 51 287 0.0 0.0 0.00 1.42 0.52 82 1002.0
20260505200005 51 342 0.0 0.0 0.00 1.42 0.52 82 1002.0
20260505193003 51 343 0.0 0.0 0.00 3.76 0.52 82 1002.0
20260505190001 52 352 0.0 0.0 0.00 3.76 0.52 83 1002.0
20260505183004 52 332 0.0 0.0 0.00 4.37 0.52 83 1002.0
20260505180003 52 26 0.0 0.0 0.00 4.37 0.52 82 1002.0
20260505173001 53 45 0.0 0.0 0.00 1.10 0.52 81 1002.0
20260505170004 53 24 0.0 0.0 0.00 1.10 0.52 80 1002.0
20260505163002 53 323 0.0 0.0 0.00 1.10 0.52 79 1002.0
20260505153004 53 4 0.0 0.0 0.00 1.10 0.52 80 1002.0
20260505123004 52 353 0.0 0.0 0.00 1.10 0.52 84 1003.0
20260505120002 52 13 0.0 0.0 0.00 1.10 0.52 84 1003.0
20260505113000 51 96 0.0 0.0 0.00 1.10 0.52 85 1004.0
20260505100000 49 326 0.0 0.0 0.00 1.10 0.52 89 1004.0
20260505093004 49 23 0.0 0.0 0.00 1.10 0.52 90 1004.0
20260505090002 49 346 0.0 0.0 0.00 1.10 0.52 91 1004.0
20260505083002 48 355 0.0 0.0 0.00 1.10 0.52 93 1004.0
20260505080004 48 316 0.0 0.0 0.00 1.10 0.52 92 1004.0
20260505073002 48 17 0.0 0.0 0.00 1.10 0.52 93 1004.0
20260505070001 48 13 0.0 0.0 0.00 1.10 0.52 92 1004.0
20260505063004 48 311 0.0 0.0 0.00 1.10 0.52 92 1004.0
20260505060002 48 347 0.0 0.0 0.00 1.10 0.52 92 1004.0
20260505053001 48 29 0.0 0.0 0.00 1.10 0.52 92 1004.0